AAL2623 KSAT-KPHX

Flight info

Callsign AAL2623
Flight time N/A
Altitude 34000
Route ALISS7 ALISS DCT FST DCT ELP DCT DRRVR PINNG1
Aircraft A20N/M-SDE2E3FGHIRWXY/LB1

Departure

Time 2026-04-24 19:52
Airport San Antonio International Airport (KSAT)

Arrival

Time N/A
Airport Phoenix Sky Harbor International Airport (KPHX)
Time Latitude Longitude Altitude Speed Heading
2026-04-24 19:38 29.52842 -98.47151 793 ft 0 kts 310°
2026-04-24 19:41 29.52841 -98.47151 793 ft 2 kts 310°
2026-04-24 19:41 29.52830 -98.47137 793 ft 2 kts 319°
2026-04-24 19:41 29.52817 -98.47125 793 ft 2 kts 333°
2026-04-24 19:42 29.52801 -98.47119 792 ft 2 kts
2026-04-24 19:42 29.52785 -98.47124 792 ft 2 kts 32°
2026-04-24 19:42 29.52776 -98.47131 792 ft 1 kts 39°
2026-04-24 19:42 29.52776 -98.47132 792 ft 0 kts 39°
2026-04-24 19:46 29.52773 -98.47134 792 ft 0 kts 39°
2026-04-24 19:48 29.52774 -98.47133 792 ft 5 kts 38°
2026-04-24 19:48 29.52987 -98.47169 794 ft 24 kts 334°
2026-04-24 19:49 29.53269 -98.47449 799 ft 31 kts 312°
2026-04-24 19:49 29.53587 -98.47858 804 ft 36 kts 312°
2026-04-24 19:50 29.53969 -98.48350 818 ft 37 kts 311°
2026-04-24 19:50 29.54100 -98.48517 817 ft 14 kts 319°
2026-04-24 19:51 29.54131 -98.48524 816 ft 0 kts 15°
2026-04-24 19:52 29.54161 -98.48409 812 ft 19 kts 126°
2026-04-24 19:52 29.53909 -98.48086 813 ft 110 kts 132°
2026-04-24 19:52 29.53183 -98.47147 900 ft 193 kts 131°
2026-04-24 19:52 29.52244 -98.45852 1582 ft 231 kts 131°
2026-04-24 19:53 29.51151 -98.44300 2474 ft 261 kts 130°
2026-04-24 19:53 29.50032 -98.42685 3550 ft 248 kts 130°
2026-04-24 19:53 29.48008 -98.39754 5848 ft 219 kts 130°
2026-04-24 19:54 29.46957 -98.38468 6983 ft 221 kts 131°
2026-04-24 19:54 29.45930 -98.37176 8109 ft 222 kts 129°
2026-04-24 19:54 29.45297 -98.35579 9287 ft 224 kts 98°
2026-04-24 19:54 29.45521 -98.33827 10435 ft 225 kts 64°
2026-04-24 19:55 29.46115 -98.32871 11173 ft 222 kts 40°
2026-04-24 19:55 29.48028 -98.31921 12191 ft 238 kts 356°
2026-04-24 19:55 29.49663 -98.32338 12723 ft 249 kts 326°
2026-04-24 19:55 29.51019 -98.33658 13264 ft 266 kts 306°
2026-04-24 19:56 29.52183 -98.35364 14098 ft 271 kts 303°
2026-04-24 19:56 29.53383 -98.36988 14586 ft 267 kts 309°
2026-04-24 19:56 29.54697 -98.38540 14634 ft 275 kts 311°